Lapse_Rate
5.9 5.7 5.7 5.8 5.8 5.8 5.8 6.0 6.1 6.1 6.2 6.4 6.5 6.5 6.5 6.3 6.3 6.3 6.3 6.2 6.1 6.0 6.1 6.2 6.3 6.2 6.3 6.4 6.9 7.0 6.9 6.6 6.9 7.5 7.4 7.2 6.8 6.6 6.0 6.1 5.8 5.8 5.4
5.7 5.7 5.8 5.6 5.6 5.7 5.8 5.9 6.0 5.9 6.0 6.2 6.4 6.4 6.4 6.4 6.4 6.4 6.5 6.4 6.1 6.1 6.2 6.2 6.3 6.3 6.2 6.3 6.6 6.9 6.8 7.0 7.1 7.2 7.5 7.3 7.3 6.8 6.4 6.3 6.3 5.9 5.9
6.0 5.7 5.7 5.7 5.7 5.8 5.8 5.9 6.2 6.3 6.2 6.3 6.2 6.2 6.4 6.5 6.5 6.5 6.4 6.2 6.1 6.2 6.2 6.1 6.2 6.2 6.2 6.1 6.3 6.4 6.7 7.0 7.3 7.0 7.2 7.3 7.2 7.0 6.6 6.5 6.6 6.2 6.1
5.8 5.9 5.9 6.0 5.9 6.0 6.3 6.4 6.4 6.5 6.3 6.2 6.3 6.1 6.1 6.2 6.3 6.3 6.3 6.1 5.8 5.9 6.1 6.1 6.1 6.2 6.1 6.2 6.1 6.5 6.7 6.7 7.4 7.0 7.2 7.2 7.2 7.3 7.1 6.9 6.7 6.5 6.3
6.1 6.2 6.1 6.0 6.1 6.3 6.3 6.3 6.5 6.4 6.2 6.1 6.1 6.2 6.0 6.0 6.1 6.1 6.2 6.1 5.7 5.7 5.8 6.0 6.1 6.1 6.2 6.2 6.1 6.1 6.3 6.3 6.9 7.0 7.2 7.0 7.1 7.3 7.3 6.7 7.1 6.4 6.3
6.3 6.1 6.1 6.3 6.4 6.4 6.3 6.3 6.5 6.5 6.3 6.2 6.0 6.0 6.0 6.0 6.0 6.2 6.0 5.9 5.8 5.8 5.9 6.0 6.3 6.3 6.1 6.3 6.3 6.3 6.2 6.2 6.7 6.9 7.0 7.0 7.1 7.1 7.0 7.0 7.0 7.5 6.8
6.2 6.3 6.3 6.1 6.1 6.2 6.1 6.1 6.2 6.3 6.1 6.1 6.0 5.9 5.6 5.8 6.2 6.1 6.0 5.8 6.0 6.1 6.1 6.4 6.7 6.8 6.5 6.4 6.4 6.4 6.4 6.2 6.5 6.6 6.6 7.0 7.1 7.2 7.1 7.1 7.1 6.9 7.0
6.3 6.1 6.0 5.9 6.0 5.8 5.9 6.0 6.1 6.0 6.1 6.0 5.9 5.6 5.6 5.9 6.2 6.1 6.1 6.0 6.2 6.4 6.7 7.0 7.1 7.2 6.9 6.6 6.4 6.4 6.3 6.2 6.4 6.5 6.6 7.0 7.0 7.1 7.0 7.1 7.0 6.6 6.8
6.1 5.7 5.6 5.9 5.9 6.0 6.1 6.4 6.5 6.5 6.6 6.4 5.9 5.8 5.8 6.1 6.2 6.0 6.0 5.9 6.0 6.3 6.7 6.8 6.7 6.9 7.1 6.8 6.4 6.3 6.3 6.3 6.4 6.5 6.5 6.6 6.8 6.9 6.8 6.9 7.0 6.9 6.8
5.6 5.6 6.0 6.2 5.9 5.8 6.2 6.5 6.7 7.0 7.0 7.1 6.1 5.8 5.7 5.9 5.9 6.0 5.9 5.8 5.9 5.9 5.8 6.1 6.2 6.5 6.9 6.8 6.6 6.5 6.3 6.6 6.6 6.6 6.6 6.5 6.6 6.7 6.8 6.4 6.9 7.0 6.9
5.7 6.0 5.9 5.6 5.3 5.6 6.2 6.4 6.7 6.7 6.7 6.6 5.8 5.7 5.8 5.8 5.9 5.7 5.4 5.3 5.1 5.2 5.8 5.0 5.5 6.0 6.4 6.6 6.5 6.6 6.9 6.8 6.6 6.5 6.3 6.1 6.3 6.5 6.7 6.8 7.0 7.1 7.1
6.2 6.0 5.9 5.6 5.5 5.7 5.9 6.1 6.4 6.5 6.4 6.3 5.8 5.6 5.6 5.6 5.4 5.0 5.0 5.0 5.1 5.3 5.3 5.4 5.6 6.1 6.4 6.4 6.5 6.8 6.8 6.7 6.5 6.4 6.1 6.2 6.4 6.6 6.9 6.9 6.8 6.6 6.8
6.1 6.1 5.6 5.4 5.6 5.7 5.7 5.7 5.8 6.1 6.2 6.1 5.7 5.4 5.5 5.5 4.7 4.6 5.0 4.9 5.4 5.6 5.8 6.1 6.3 6.2 6.5 6.5 6.5 6.6 6.5 6.5 6.2 6.0 6.2 6.4 6.6 6.6 6.7 6.5 6.5 6.5 6.5
6.0 5.7 5.5 5.6 5.6 5.6 5.5 5.3 5.5 5.6 5.8 5.8 5.7 5.6 5.4 5.2 4.8 4.6 4.8 5.1 5.5 5.6 5.7 5.8 5.8 5.9 6.1 6.4 6.5 6.2 6.1 6.1 5.9 6.1 6.3 6.3 6.1 6.1 6.2 6.3 6.1 6.4 6.0
5.8 5.7 5.4 5.5 5.4 5.5 5.7 5.7 5.6 5.5 5.4 5.5 5.5 5.5 5.4 4.8 4.8 4.9 5.0 5.5 6.0 6.2 5.9 5.3 5.6 5.8 5.8 5.8 5.9 5.9 5.9 6.0 6.1 6.3 6.2 6.0 6.0 6.0 6.3 6.4 6.1 5.7 5.5
5.9 5.9 5.5 5.4 5.2 5.4 5.4 5.5 5.3 5.4 5.5 5.4 5.4 5.2 5.0 5.2 5.2 5.0 5.4 5.8 5.8 6.0 6.1 5.5 5.2 5.4 5.7 5.9 5.9 6.0 6.1 5.9 6.0 6.0 6.0 6.0 6.0 5.9 5.7 5.3 5.2 5.3 4.9
5.6 5.6 5.4 5.4 5.1 5.3 5.3 5.3 5.4 5.4 5.6 5.5 5.1 4.9 5.3 5.3 5.4 5.3 5.5 5.6 5.4 5.6 6.0 5.2 5.3 5.3 5.1 5.7 5.9 5.9 5.8 5.9 5.9 5.8 5.8 6.0 6.0 5.8 5.7 5.3 5.1 4.9 4.8
5.6 5.3 5.4 5.1 5.6 5.1 5.2 5.2 5.5 5.4 5.2 5.1 5.0 5.5 5.3 5.3 5.4 5.3 5.0 4.9 5.0 5.5 5.8 5.8 5.6 5.3 5.0 5.1 4.9 5.1 5.2 5.5 5.7 5.6 5.7 5.9 5.8 5.8 5.2 5.0 4.9 4.8 4.9
5.8 5.6 5.5 5.0 5.4 5.2 5.3 5.2 5.2 5.5 5.3 5.0 5.2 5.1 5.0 5.1 5.3 5.2 5.5 5.1 5.1 5.3 5.6 5.6 5.8 5.4 4.9 5.0 5.0 5.2 5.5 5.6 5.4 5.6 5.7 5.9 5.6 5.7 5.5 5.2 5.2 4.9 4.8
5.7 5.5 5.3 5.3 5.4 5.3 5.3 5.5 5.4 5.3 5.3 5.1 5.5 5.5 5.7 5.0 5.2 5.3 5.4 5.5 5.6 5.4 5.3 5.7 5.7 5.7 5.8 5.2 5.3 5.1 5.0 5.2 5.6 5.5 5.5 5.6 5.4 5.5 5.5 5.4 5.5 5.4 5.3
5.4 5.6 5.4 5.5 5.4 5.3 5.5 5.3 5.4 5.4 5.2 5.3 5.4 5.2 4.9 5.2 5.0 5.6 5.3 5.5 5.4 5.3 5.1 5.2 5.5 5.6 5.6 5.8 6.0 5.8 5.4 5.3 5.4 5.3 5.3 5.4 5.4 5.4 5.3 5.4 5.5 5.1 5.3
5.7 5.6 5.5 5.5 5.4 5.5 5.5 5.8 5.6 5.5 5.3 5.1 5.2 5.1 5.0 5.1 5.4 5.5 5.5 5.5 5.4 5.6 5.3 5.3 5.5 5.5 5.4 5.6 5.7 5.8 5.6 5.5 5.7 5.7 5.5 5.5 5.6 5.5 5.2 5.1 5.2 5.5 5.6
5.3 5.8 5.5 5.6 5.7 5.6 5.5 5.6 5.7 5.7 5.7 5.3 5.6 5.6 5.4 5.4 5.6 5.7 5.7 5.6 5.6 5.6 5.7 5.7 5.5 4.9 5.3 5.5 5.6 5.4 5.3 5.3 5.2 5.3 5.3 5.5 5.5 5.5 5.4 5.2 5.2 5.4 5.4
5.7 5.6 5.2 5.3 5.6 5.6 5.6 5.8 5.8 5.6 5.8 5.7 5.6 5.5 5.6 5.7 5.8 5.7 5.7 5.9 6.0 5.8 5.7 5.6 5.8 5.9 5.6 5.2 5.2 5.3 5.2 5.1 4.7 4.5 4.8 5.0 4.9 5.0 5.1 5.0 5.0 5.1 5.2
5.7 5.4 5.6 5.4 5.5 5.8 5.9 5.9 5.6 5.6 5.8 5.9 5.9 6.0 6.0 5.9 6.1 6.2 6.1 6.1 6.1 5.9 5.8 5.7 5.7 5.7 5.7 5.4 5.2 5.1 5.2 5.1 5.0 5.1 5.0 5.1 5.0 5.1 5.1 5.1 5.2 5.2 5.3
5.8 5.8 5.6 5.5 5.7 5.8 5.8 5.9 5.7 5.6 5.6 5.7 5.7 5.5 5.8 5.7 6.1 6.3 6.1 6.2 6.0 5.9 5.8 5.7 5.6 5.7 5.8 5.7 5.4 5.3 5.2 5.3 5.2 5.1 5.2 5.3 5.2 5.1 5.0 5.1 5.3 5.4 5.4
Wind_Speed
4 3 3 4 5 7 8 9 10 10 11 12 12 12 12 13 13 13 14 15 14 16 15 13 15 16 14 12 10 10 12 14 14 11 11 12 13 14 12 13 10 15 16
3 1 3 5 7 9 10 12 12 13 14 14 13 12 12 13 13 14 16 15 16 14 17 16 16 11 15 15 12 15 13 14 13 14 12 11 13 12 12 11 5 12 13
1 3 5 8 8 10 12 13 13 14 15 15 14 14 14 13 13 13 15 17 17 18 18 17 18 17 15 12 14 13 13 11 12 10 10 11 12 10 10 10 8 5 11
3 5 7 9 9 10 13 14 14 15 16 14 14 14 14 14 14 14 14 16 17 17 17 18 19 18 18 16 14 14 13 12 10 10 10 12 12 9 8 8 9 7 9
7 8 9 7 9 12 14 14 15 15 15 15 14 14 14 13 12 14 15 16 15 18 17 18 18 20 22 18 12 15 15 13 10 10 10 8 9 5 6 5 9 9 8
8 10 8 8 10 12 14 15 15 16 15 14 13 13 14 11 11 12 15 16 17 17 17 17 17 20 20 18 20 23 20 14 13 10 10 11 12 8 8 9 9 8 8
9 9 9 9 12 13 14 15 15 15 14 13 13 13 14 14 13 13 14 15 16 17 17 15 13 13 17 19 19 23 23 21 22 15 13 13 12 12 13 13 12 10 9
11 11 10 11 13 14 14 15 15 11 12 12 13 13 13 13 13 12 14 14 12 15 16 16 17 16 15 18 18 18 16 14 18 13 17 17 13 14 13 13 12 11 10
13 12 12 12 13 13 14 13 11 12 12 12 12 14 15 16 11 12 11 12 10 14 14 15 16 17 17 17 19 19 18 17 13 17 17 17 16 13 11 8 11 10 12
14 13 12 11 11 13 13 12 11 11 12 11 13 13 15 15 14 9 9 9 12 9 13 14 19 20 18 16 18 17 15 18 13 13 14 15 11 11 15 15 14 13 13
12 12 12 11 11 12 12 11 11 12 11 10 13 13 14 13 13 9 11 8 8 8 9 11 10 15 19 20 17 15 18 14 14 11 10 9 11 15 15 16 17 16 14
12 12 13 12 10 10 12 12 12 12 12 13 12 12 9 9 7 9 12 8 9 8 11 11 13 13 14 17 14 16 15 12 10 8 9 10 11 11 14 13 16 16 15
13 14 13 13 12 11 10 12 11 12 11 12 10 9 10 7 6 10 9 8 12 9 8 13 20 18 16 12 14 14 12 7 8 8 9 10 10 9 10 12 15 15 17
15 15 13 12 11 10 8 8 9 10 10 11 8 8 7 7 9 5 7 8 9 10 10 11 15 14 12 10 8 8 7 8 9 9 8 8 8 8 10 12 11 10 11
12 11 11 10 10 10 9 8 8 11 8 9 7 5 6 11 10 4 5 10 9 11 13 6 9 3 5 5 5 6 5 7 8 7 7 9 9 9 11 12 11 11 12
12 9 7 8 8 6 6 9 10 12 15 14 12 9 8 12 18 14 11 15 15 13 4 5 7 7 6 5 5 4 6 8 7 8 9 9 8 9 10 10 10 8 9
12 12 10 9 9 8 7 7 8 8 12 9 8 13 12 16 13 10 12 16 18 8 6 7 7 6 7 7 6 2 3 2 2 3 5 6 6 6 4 7 10 7 6
12 12 9 8 9 8 9 9 7 6 6 6 8 13 16 10 11 7 8 13 6 1 6 6 6 5 5 7 9 6 5 4 3 2 1 2 3 6 6 5 3 4 5
11 9 11 9 9 9 10 7 6 6 5 5 8 7 5 6 9 8 5 4 5 7 7 7 7 6 6 6 6 8 7 6 5 5 5 4 4 4 2 5 5 7 7
11 13 10 9 8 9 9 5 7 4 6 6 7 6 8 5 7 6 5 4 4 5 6 7 7 7 5 5 5 4 5 6 6 6 6 5 6 5 5 6 6 6 6
9 10 11 8 9 9 9 9 7 5 6 5 6 6 9 5 8 4 6 6 7 6 7 7 7 8 7 6 7 7 7 4 4 4 6 7 7 7 6 6 7 8 8
6 7 9 9 8 8 8 9 9 8 7 7 7 9 16 9 9 10 8 9 8 7 7 6 6 7 7 7 8 9 9 9 9 8 8 8 7 8 8 6 8 7 7
7 8 8 8 8 9 10 9 10 10 8 8 9 8 9 8 9 10 11 10 8 9 9 9 9 8 9 9 9 8 9 8 6 6 6 7 7 7 7 7 7 7 7
11 11 9 8 8 8 9 8 9 11 11 10 10 9 8 10 11 11 10 10 10 11 11 11 11 14 12 11 10 9 9 10 7 5 4 4 5 3 5 5 5 5 5
10 9 9 10 9 9 8 9 9 9 9 9 10 9 8 11 11 11 10 10 9 9 12 10 11 15 17 19 19 18 19 17 10 11 2 2 4 4 4 3 3 3 3
10 10 9 8 10 9 8 8 9 9 8 9 9 9 9 10 10 11 11 12 11 10 11 10 13 18 18 16 22 23 20 19 13 14 6 3 2 2 2 3 2 3 1
Wind_Direction
200 226 251 314 324 311 291 289 289 290 285 278 279 281 279 276 275 269 264 256 238 237 236 230 235 244 247 245 241 240 240 243 249 253 257 261 253 261 269 259 247 263 265
208 257 327 321 304 293 293 296 297 292 289 283 281 278 278 279 277 274 272 264 250 241 246 243 239 239 239 240 240 237 234 238 245 247 245 251 250 261 270 262 240 245 262
287 314 300 285 287 301 306 306 301 294 289 281 280 283 286 285 283 277 275 270 262 254 245 248 251 246 241 234 233 240 236 230 234 244 248 250 255 259 257 256 252 240 243
276 259 267 280 301 314 311 305 301 295 287 280 281 282 282 284 283 279 276 275 271 266 258 247 247 250 250 247 236 231 236 233 224 235 240 243 248 243 237 255 260 243 241
259 263 267 299 318 316 309 302 298 292 283 281 281 281 282 283 281 283 280 279 274 271 265 257 251 249 251 247 249 246 238 235 233 232 236 238 233 205 220 223 247 256 220
261 266 295 313 312 303 299 297 296 294 287 281 280 284 287 285 287 263 265 279 278 275 273 269 260 251 247 242 244 246 251 247 236 231 239 234 235 224 226 233 239 241 246
283 284 291 299 302 303 304 301 297 295 291 288 289 286 285 286 274 267 269 285 280 272 269 264 259 257 250 255 242 234 239 236 238 243 236 234 232 224 225 227 234 232 236
284 287 295 302 302 303 302 298 296 292 294 294 293 289 287 285 268 271 274 285 273 269 266 259 253 251 248 253 256 253 240 232 238 236 242 244 232 235 228 226 230 231 252
291 290 289 297 298 298 294 293 298 299 296 293 291 291 292 289 272 261 288 294 292 287 269 258 255 254 244 240 252 250 250 246 231 229 236 230 241 236 230 222 226 230 249
295 286 290 291 290 292 295 298 298 295 292 292 292 290 288 283 278 269 288 290 295 301 289 272 253 246 244 232 242 248 247 245 231 236 233 239 235 229 214 224 235 239 237
299 289 291 293 294 293 293 294 297 294 294 287 287 294 289 282 285 266 269 295 282 295 292 280 272 242 236 242 233 248 245 254 238 229 225 228 231 230 232 227 234 238 232
306 301 299 297 293 294 296 298 298 293 288 286 287 289 286 300 295 272 276 260 275 274 274 278 272 258 263 249 234 234 243 232 230 214 217 222 228 226 232 223 224 226 232
307 298 298 295 291 296 301 304 299 293 285 285 286 290 296 298 278 264 277 294 283 269 280 283 279 269 262 265 248 237 230 232 229 212 214 220 218 231 241 231 225 227 231
312 306 302 298 298 299 300 304 302 301 296 292 286 290 297 298 306 300 302 305 285 298 309 298 284 273 263 258 247 228 220 217 216 219 219 222 222 220 226 232 225 216 223
329 315 309 309 305 299 300 303 299 292 279 287 288 281 306 308 301 301 302 308 306 299 311 296 327 283 250 242 232 230 212 217 209 208 209 224 229 229 228 226 227 223 221
318 312 308 306 303 289 283 300 275 248 273 260 256 246 299 262 280 291 305 304 294 300 278 305 328 327 339 320 250 235 214 207 196 204 213 225 228 226 227 232 227 209 203
310 311 310 295 293 292 294 291 300 297 264 271 333 312 272 264 272 285 307 298 291 309 308 328 348 337 339 336 326 239 199 159 187 214 227 234 229 189 179 226 216 196 185
307 302 307 308 309 297 297 294 294 297 320 328 319 265 275 290 275 263 282 302 310 189 338 338 348 5 350 350 0 350 41 57 62 67 86 33 238 205 204 179 178 139 156
315 315 324 316 308 304 306 308 305 302 317 319 323 322 319 293 279 264 256 275 351 12 5 4 2 1 7 8 9 3 16 32 49 47 37 51 54 49 59 158 162 155 153
319 309 327 330 323 329 337 320 315 356 343 346 329 337 335 340 337 338 335 355 16 18 20 16 15 17 14 1 31 17 23 15 36 49 42 30 53 59 59 61 73 86 87
344 346 347 356 358 346 -0 4 341 355 5 344 323 2 354 352 336 328 347 355 9 4 11 5 18 24 32 30 28 44 52 81 82 45 56 75 60 54 44 53 72 78 83
350 354 2 8 7 358 2 6 16 23 12 10 1 357 357 13 11 4 9 360 10 18 5 350 6 22 14 19 22 26 35 41 46 54 61 71 74 82 93 99 99 102 105
5 7 13 7 3 9 12 18 16 11 17 15 20 10 17 20 25 17 6 12 21 20 12 12 23 9 9 9 7 8 13 26 27 25 57 76 82 81 79 80 88 94 96
17 16 11 13 13 16 15 7 26 27 16 16 26 29 24 31 25 21 18 20 21 26 26 19 25 26 18 14 15 356 7 344 344 356 13 34 80 92 84 83 80 88 105
19 17 18 10 16 15 11 13 25 26 35 27 18 19 20 40 34 25 23 24 24 25 33 36 32 24 26 25 17 5 353 345 346 317 346 333 39 37 35 40 54 93 99
22 23 18 18 22 18 13 8 19 10 19 21 17 20 20 22 28 28 21 20 22 26 30 31 29 33 29 22 10 1 359 354 351 329 324 355 357 2 14 2 11 336 345